Torna al catalogo

STARLINK-30976

AttivoComunicazioniVLEO
NORAD 58447·PAYLOAD·🇺🇸 United States

Lanciato Nov 28, 2023 da Cape Canaveral Space Force Station

Loading…

Prossimi Passaggi (prossime 24 ore)

TLE

AggiornatoSource: CelesTrak SupGP

Epoca: Sep 14, 2026, 21:11 UTC

1 58447C 23183L   26257.88312500  .00063828  00000+0  23110-2 0  2576
2 58447  43.0014  53.1487 0001757 275.4915 291.2740 15.27557814    14

Traccia STARLINK-30976 in tempo reale con AllMySat

Download on the App Store